sat.trackr.live / text

‹ back to catalog

STARLINK-36507

NORAD 67409 · 2026-005F

PAYLOAD ACTIVE UNKNOWN

§ Identity

Operator
Country
US
Launch date
2026-01-12
Launch site
AFETR
Launch vehicle
Mass (kg)
RCS (m²)

Purposes: comms

External: N2YO · Heavens-Above · Gunter

§ Orbital elements

Epoch: 2026-05-25T01:26:49.813728Z

Period
94.27 min
Inclination
42.9992°
Eccentricity
0.0001337
Mean motion
15.27590811 rev/d
Perigee alt
482.1 km
Apogee alt
483.9 km
Semi-major
6,861.2 km
B*
7.7553e-4
RAAN
166.9213°
Arg perigee
288.5302°
Mean anomaly
71.5404°
Rev number
2,037

§ Raw data

STARLINK-365071 67409U 26005F   26145.06029877  .00021147  00000+0  77553-3 0  99902 67409  42.9992 166.9213 0001337 288.5302  71.5404 15.27590811 20375

JSON: /api/v1/satellites/67409 · /tle

For live sub-satellite position, see the globe view (requires WebGL).

§ Visibility from observer

Set your observer location to see the next 7 days of passes ≥ 10°. The values pass through the URL so the page stays shareable.

No JS? Fill the form by hand. The geolocation button needs JavaScript.